M I D A S
Marine Information and Data Acquisition System
Tripno 1117 of the Zeeleeuw from 2006-06-28 06:48:05 to 2006-06-28 13:31:50
Back to CruiseResearch ActivitiesStationsMapUnderway DataData graphs

EquipmentUnitsComment
TimeDGPSUTC
LatitudeDGPSDM.mWGS84
LongitudeDGPSDM.mWGS84
TemperatureSBE03/SBE38deg celciusITS90
ConductivitySBE21S/mITS90
SalinitySBE21 Practical Salinity Units
ChlorophylAChelsea fluorimeterg/lCalibrated in Aceton
Missing or incorrect values are displayed as -999
Sea surface data collected by the RV Zeeleeuw from 2006-06-28 06:48:06 to 2006-06-28 13:44:32
Time Latitude Longitude Temperature Conductivity Salinity ChlorophylA
2006-06-28 06:49:11 51°13.61 2°56.062 21.5948 0.007887 0.04464 24.129999
2006-06-28 06:50:11 51°13.633 2°55.982 21.6102 0.007783 0.044136 24.129999
2006-06-28 06:51:12 51°13.66 2°55.889 21.629 0.007887 0.044643 24.096289
2006-06-28 06:52:11 51°13.695 2°55.803 21.6337 0.007783 0.044138 24.096289
2006-06-28 06:53:11 51°13.723 2°55.735 21.6234 0.007887 0.044645 24.06258
2006-06-28 06:54:10 51°13.731 2°55.725 21.6393 0.007783 0.044141 24.06258
2006-06-28 06:55:11 51°13.729 2°55.72 21.6482 0.007783 0.044141 24.028871
2006-06-28 06:56:10 51°13.751 2°55.714 21.7101 0.007783 0.044143 23.995161
2006-06-28 06:57:11 51°13.829 2°55.638 21.4774 0.007783 0.044141 23.995161
2006-06-28 06:58:11 51°13.946 2°55.55 21.5931 0.007783 0.044143 23.961452
2006-06-28 06:59:11 51°14.051 2°55.475 21.6351 0.007783 0.044143 23.961452
2006-06-28 07:00:11 51°14.172 2°55.379 21.6442 0.007783 0.044144 23.927742
2006-06-28 07:01:11 51°14.289 2°55.205 21.559 0.007783 0.044143 23.894033
2006-06-28 07:02:11 51°14.393 2°54.972 21.5358 0.007783 0.044143 23.894033
2006-06-28 07:03:11 51°14.49 2°54.684 21.5314 0.007783 0.044142 23.894033
2006-06-28 07:04:10 51°14.599 2°54.382 21.4521 0.007783 0.044144 23.894033
2006-06-28 07:05:10 51°14.732 2°54.104 21.4524 0.007783 0.044145 23.894033
2006-06-28 07:06:11 51°14.906 2°53.913 21.4845 0.007783 0.044147 23.826614
2006-06-28 07:07:11 51°15.087 2°53.764 21.4893 0.007783 0.044148 23.792905
2006-06-28 07:08:11 51°15.267 2°53.603 21.5044 0.007783 0.04415 23.792905
2006-06-28 07:09:11 51°15.444 2°53.432 21.5179 0.007783 0.044151 23.725486
2006-06-28 07:10:11 51°15.623 2°53.264 21.5455 0.007783 0.044152 23.725486
2006-06-28 07:11:11 51°15.803 2°53.096 21.5486 0.007783 0.044153 23.759195
2006-06-28 07:12:11 51°15.991 2°52.95 21.5668 0.007783 0.044153 23.658067
2006-06-28 07:13:11 51°16.18 2°52.813 21.5807 0.007783 0.044154 23.658067
2006-06-28 07:14:11 51°16.372 2°52.686 21.5946 0.007783 0.044155 23.624358
2006-06-28 07:15:11 51°16.564 2°52.557 21.6123 0.007783 0.044156 23.624358
2006-06-28 07:16:11 51°16.755 2°52.435 21.6245 0.007783 0.044156 23.590648
2006-06-28 07:17:11 51°16.946 2°52.317 21.6487 0.007783 0.044157 23.556939
2006-06-28 07:18:11 51°17.136 2°52.198 21.6481 0.007783 0.044157 23.52323
2006-06-28 07:19:12 51°17.334 2°52.112 21.6746 0.007783 0.044158 23.556939
2006-06-28 07:20:10 51°17.498 2°51.947 21.6998 0.007783 0.044161 23.48952
2006-06-28 07:21:10 51°17.596 2°51.648 21.7022 0.007783 0.044161 23.48952
2006-06-28 07:22:11 51°17.632 2°51.294 21.6942 0.007783 0.044161 23.48952
2006-06-28 07:23:11 51°17.708 2°50.961 21.7112 0.007783 0.04416 23.422101
2006-06-28 07:24:11 51°17.781 2°50.619 21.714 0.007783 0.044162 23.422101
2006-06-28 07:25:11 51°17.852 2°50.273 21.7473 0.007783 0.044163 23.388392
2006-06-28 07:26:11 51°17.928 2°49.93 21.761 0.007783 0.044164 23.422101
2006-06-28 07:27:11 51°18.011 2°49.592 21.7778 0.007783 0.044166 23.388392
2006-06-28 07:28:11 51°18.096 2°49.257 21.7641 0.007783 0.044166 23.354683
2006-06-28 07:29:11 51°18.188 2°48.933 21.7767 0.007783 0.044167 23.320973
2006-06-28 07:30:11 51°18.298 2°48.622 21.7969 0.007783 0.044168 23.320973
2006-06-28 07:31:10 51°18.412 2°48.321 21.817 0.007783 0.044169 23.287264
2006-06-28 07:32:11 51°18.518 2°47.997 21.8378 0.007783 0.04417 23.253554
2006-06-28 07:33:11 51°18.612 2°47.666 21.8521 0.007783 0.044171 23.253554
2006-06-28 07:34:11 51°18.714 2°47.345 21.8629 0.007783 0.044173 23.219845
2006-06-28 07:35:10 51°18.814 2°47.028 21.881 0.007783 0.044173 23.152426
2006-06-28 07:36:11 51°18.917 2°46.696 21.8977 0.007783 0.044174 23.186136
2006-06-28 07:37:11 51°19.019 2°46.365 21.9094 0.007783 0.044175 23.152426
2006-06-28 07:38:11 51°19.122 2°46.038 21.9305 0.007783 0.044177 23.152426
2006-06-28 07:39:11 51°19.225 2°45.711 21.9424 0.007783 0.044183 23.118717
2006-06-28 07:40:11 51°19.331 2°45.386 21.966 0.007783 0.044191 23.085007
2006-06-28 07:41:11 51°19.44 2°45.06 21.9727 0.007783 0.044199 23.085007
2006-06-28 07:42:11 51°19.537 2°44.727 21.9781 0.007783 0.044209 23.051298
2006-06-28 07:43:11 51°19.627 2°44.394 21.9951 0.007783 0.044217 23.085007
2006-06-28 07:44:11 51°19.708 2°44.052 21.9971 0.007783 0.044225 23.051298
2006-06-28 07:45:11 51°19.789 2°43.706 22.0294 0.007783 0.044233 23.051298
2006-06-28 07:46:11 51°19.865 2°43.355 22.0298 0.007783 0.04424 22.983879
2006-06-28 07:47:11 51°19.942 2°43.004 22.0576 0.007783 0.044249 22.983879
2006-06-28 07:48:11 51°20.02 2°42.655 22.0349 0.007783 0.044257 22.983879
2006-06-28 07:49:11 51°20.098 2°42.306 22.0843 0.007783 0.044267 22.983879
2006-06-28 07:50:11 51°20.171 2°41.953 22.0689 0.00768 0.043767 22.95017
2006-06-28 07:51:11 51°20.238 2°41.597 22.111 0.00768 0.043776 22.882751
2006-06-28 07:52:11 51°20.283 2°41.233 22.1205 0.00768 0.043785 22.882751
2006-06-28 07:53:10 51°20.328 2°40.871 22.1233 0.00768 0.043792 22.882751
2006-06-28 07:54:11 51°20.37 2°40.494 22.1494 0.00768 0.043802 22.882751
2006-06-28 07:55:11 51°20.409 2°40.126 22.1599 0.00768 0.043812 22.882751
2006-06-28 07:56:12 51°20.443 2°39.75 22.1624 0.00768 0.04382 22.815332
2006-06-28 07:57:11 51°20.478 2°39.386 22.1835 0.00768 0.043829 22.849042
2006-06-28 07:58:12 51°20.515 2°39.006 22.1939 0.00768 0.043836 22.815332
2006-06-28 07:59:11 51°20.549 2°38.637 22.2118 0.00768 0.043844 22.747913
2006-06-28 08:00:11 51°20.589 2°38.261 22.2307 0.00768 0.043852 22.747913
2006-06-28 08:01:11 51°20.626 2°37.882 22.2529 0.00768 0.043859 22.747913
2006-06-28 08:02:11 51°20.667 2°37.506 22.2572 0.00768 0.043868 22.747913
2006-06-28 08:03:10 51°20.706 2°37.133 22.2748 0.00768 0.043877 22.747913
2006-06-28 08:04:10 51°20.744 2°36.756 22.2905 0.00768 0.043885 22.646785
2006-06-28 08:05:12 51°20.784 2°36.368 22.2859 0.00768 0.043893 22.714204
2006-06-28 08:06:11 51°20.821 2°36 22.3203 0.00768 0.0439 22.613076
2006-06-28 08:07:10 51°20.856 2°35.63 22.3399 0.00768 0.043907 22.579366
2006-06-28 08:08:11 51°20.893 2°35.247 22.3576 0.00768 0.043915 22.579366
2006-06-28 08:09:12 51°20.927 2°34.86 22.3632 0.00768 0.043921 22.579366
2006-06-28 08:10:11 51°20.946 2°34.482 22.3777 0.00768 0.043929 22.511947
2006-06-28 08:11:12 51°20.961 2°34.078 22.3976 0.00768 0.043935 22.511947
2006-06-28 08:12:12 51°20.975 2°33.678 22.3982 0.00768 0.043941 22.444529
2006-06-28 08:13:11 51°20.991 2°33.284 22.422 0.00768 0.043948 22.478238
2006-06-28 08:14:12 51°21.007 2°32.877 22.4391 0.00768 0.043954 22.478238
2006-06-28 08:15:11 51°21.021 2°32.485 22.4368 0.00768 0.043961 22.37711
2006-06-28 08:16:12 51°21.036 2°32.081 22.4613 0.00768 0.043967 22.37711
2006-06-28 08:17:11 51°21.054 2°31.691 22.458 0.00768 0.043972 22.444529
2006-06-28 08:18:11 51°21.079 2°31.292 22.451 0.00768 0.043978 22.3434
2006-06-28 08:19:11 51°21.127 2°30.89 22.4604 0.00768 0.043984 22.309691
2006-06-28 08:20:11 51°21.232 2°30.554 22.4949 0.00768 0.043992 22.309691
2006-06-28 08:21:12 51°21.358 2°30.242 22.5043 0.00768 0.043998 22.242272
2006-06-28 08:22:11 51°21.466 2°29.929 22.5124 0.007576 0.043491 22.275982
2006-06-28 08:23:12 51°21.584 2°29.606 22.5329 0.007576 0.043497 22.242272
2006-06-28 08:24:11 51°21.699 2°29.293 22.5496 0.007576 0.043502 22.208563
2006-06-28 08:25:11 51°21.816 2°28.968 22.5663 0.007576 0.043507 22.208563
2006-06-28 08:26:11 51°21.934 2°28.649 22.5896 0.007576 0.043515 22.107435
2006-06-28 08:27:12 51°22.057 2°28.329 22.5986 0.007576 0.043524 22.141144
2006-06-28 08:28:11 51°22.177 2°28.022 22.6053 0.007576 0.043531 22.040016
2006-06-28 08:29:11 51°22.296 2°27.708 22.6158 0.007576 0.043539 22.141144
2006-06-28 08:30:11 51°22.416 2°27.395 22.6376 0.007576 0.043548 22.073725
2006-06-28 08:31:11 51°22.535 2°27.08 22.6402 0.007576 0.043558 22.040016
2006-06-28 08:32:11 51°22.662 2°26.779 22.6534 0.007576 0.043567 22.006306
2006-06-28 08:33:11 51°22.813 2°26.516 22.6602 0.007576 0.043575 21.972597
2006-06-28 08:34:11 51°22.945 2°26.325 22.6974 0.007576 0.043586 21.972597
2006-06-28 08:35:10 51°23.061 2°26.182 22.7034 0.007576 0.043596 21.938888
2006-06-28 08:36:12 51°23.187 2°26.055 22.7166 0.007576 0.043604 21.905178
2006-06-28 08:37:11 51°23.315 2°25.974 22.7171 0.007576 0.04361 21.905178
2006-06-28 08:38:12 51°23.474 2°25.898 22.7474 0.007576 0.043617 21.871469
2006-06-28 08:39:12 51°23.669 2°25.83 22.7246 0.007576 0.043626 21.905178
2006-06-28 08:40:11 51°23.865 2°25.809 22.7338 0.007576 0.043638 21.837759
2006-06-28 08:41:12 51°24.066 2°25.786 22.7557 0.007576 0.043652 21.80405
2006-06-28 08:42:11 51°24.261 2°25.753 22.7797 0.007576 0.04367 21.80405
2006-06-28 08:43:12 51°24.461 2°25.718 22.81 0.007576 0.043689 21.770341
2006-06-28 08:44:12 51°24.657 2°25.679 22.8014 0.007576 0.043709 21.770341
2006-06-28 08:45:12 51°24.851 2°25.639 22.8255 0.007576 0.043729 21.702922
2006-06-28 08:46:12 51°25.044 2°25.6 22.8314 0.007576 0.043746 21.736631
2006-06-28 08:47:12 51°25.235 2°25.56 22.8419 0.007576 0.043761 21.736631
2006-06-28 08:48:12 51°25.426 2°25.517 22.8509 0.007576 0.043777 21.635503
2006-06-28 08:49:11 51°25.614 2°25.49 22.8369 0.007472 0.043272 21.635503
2006-06-28 08:50:11 51°25.806 2°25.463 22.8634 0.007472 0.043287 21.635503
2006-06-28 08:51:11 51°25.996 2°25.443 22.8886 0.007472 0.043301 21.568084
2006-06-28 08:52:10 51°26.186 2°25.427 22.9014 0.007472 0.043316 21.500665
2006-06-28 08:53:12 51°26.385 2°25.411 22.8945 0.007472 0.043332 21.534375
2006-06-28 08:54:12 51°26.578 2°25.397 22.9201 0.007472 0.04335 21.466956
2006-06-28 08:55:10 51°26.764 2°25.382 22.9188 0.007472 0.043369 21.500665
2006-06-28 08:56:12 51°26.963 2°25.369 22.9362 0.007472 0.043386 21.433247
2006-06-28 08:57:11 51°27.149 2°25.368 22.9506 0.007472 0.043402 21.433247
2006-06-28 08:58:11 51°27.338 2°25.365 22.9604 0.007472 0.043417 21.365828
2006-06-28 08:59:11 51°27.526 2°25.364 22.9577 0.007472 0.043434 21.399537
2006-06-28 09:00:11 51°27.714 2°25.368 22.9845 0.007472 0.043453 21.332118
2006-06-28 09:01:10 51°27.899 2°25.378 22.9777 0.007472 0.043472 21.298409
2006-06-28 09:02:11 51°28.09 2°25.388 22.9819 0.007472 0.04349 21.23099
2006-06-28 09:03:11 51°28.278 2°25.4 23.0221 0.007472 0.043508 21.197281
2006-06-28 09:04:11 51°28.465 2°25.409 23.0206 0.007472 0.043527 21.23099
2006-06-28 09:05:11 51°28.654 2°25.42 23.0381 0.007472 0.043545 21.163571
2006-06-28 09:06:12 51°28.845 2°25.433 23.0298 0.007472 0.043564 21.163571
2006-06-28 09:07:10 51°29.025 2°25.455 23.045 0.007472 0.04358 21.197281
2006-06-28 09:08:10 51°29.208 2°25.507 23.0671 0.007368 0.043069 21.129862
2006-06-28 09:09:11 51°29.394 2°25.559 23.0644 0.007368 0.043083 21.028734
2006-06-28 09:10:12 51°29.579 2°25.611 23.0814 0.007368 0.043097 21.096153
2006-06-28 09:11:10 51°29.758 2°25.662 23.0838 0.007368 0.043109 21.062443
2006-06-28 09:12:12 51°29.949 2°25.718 23.0901 0.007368 0.04312 20.995024
2006-06-28 09:13:10 51°30.128 2°25.771 23.1104 0.007368 0.043133 20.995024
2006-06-28 09:14:12 51°30.317 2°25.844 23.1033 0.007368 0.043145 20.927606
2006-06-28 09:15:11 51°30.491 2°25.926 23.1043 0.007368 0.043156 20.927606
2006-06-28 09:16:11 51°30.667 2°26.004 23.1408 0.007368 0.043166 20.826477
2006-06-28 09:17:12 51°30.845 2°26.077 23.1266 0.007368 0.043176 20.826477
2006-06-28 09:18:11 51°31.014 2°26.162 23.1504 0.007368 0.043186 20.860187
2006-06-28 09:19:12 51°31.181 2°26.28 23.1472 0.007368 0.043195 20.826477
2006-06-28 09:20:12 51°31.345 2°26.391 23.1602 0.007368 0.043204 20.759059
2006-06-28 09:21:12 51°31.513 2°26.501 23.1847 0.007368 0.043214 20.759059
2006-06-28 09:22:12 51°31.68 2°26.612 23.1664 0.007368 0.043223 20.65793
2006-06-28 09:23:10 51°31.845 2°26.716 23.203 0.007368 0.043231 20.65793
2006-06-28 09:24:11 51°32.018 2°26.829 23.2226 0.007368 0.043239 20.590512
2006-06-28 09:25:12 51°32.191 2°26.944 23.2138 0.007368 0.043247 20.590512
2006-06-28 09:26:12 51°32.36 2°27.057 23.2058 0.007368 0.043257 20.556802
2006-06-28 09:27:11 51°32.526 2°27.165 23.2211 0.007368 0.043265 20.523093
2006-06-28 09:28:11 51°32.694 2°27.275 23.226 0.007265 0.042742 20.523093
2006-06-28 09:29:12 51°32.866 2°27.388 23.2468 0.007368 0.043282 20.523093
2006-06-28 09:30:11 51°33.033 2°27.498 23.2454 0.007368 0.043289 20.455674
2006-06-28 09:31:11 51°33.195 2°27.635 23.2599 0.007265 0.042766 20.388255
2006-06-28 09:32:11 51°33.359 2°27.768 23.2757 0.007265 0.042774 20.287127
2006-06-28 09:33:10 51°33.518 2°27.911 23.2617 0.007265 0.042781 20.320836
2006-06-28 09:34:10 51°33.677 2°28.059 23.2756 0.007265 0.042789 20.320836
2006-06-28 09:35:10 51°33.837 2°28.208 23.2998 0.007265 0.042795 20.253418
2006-06-28 09:36:12 51°34.003 2°28.362 23.2969 0.007265 0.042802 20.185999
2006-06-28 09:37:10 51°34.158 2°28.505 23.2911 0.007265 0.042809 20.152289
2006-06-28 09:38:11 51°34.323 2°28.652 23.3216 0.007265 0.042816 20.152289
2006-06-28 09:39:12 51°34.485 2°28.805 23.3215 0.007265 0.042823 20.11858
2006-06-28 09:40:11 51°34.642 2°28.949 23.3487 0.007265 0.042829 20.084871
2006-06-28 09:41:10 51°34.798 2°29.096 23.3584 0.007265 0.042835 19.950033
2006-06-28 09:42:11 51°34.961 2°29.247 23.3641 0.007265 0.042843 20.051161
2006-06-28 09:43:12 51°35.121 2°29.397 23.3676 0.007265 0.042849 19.916324
2006-06-28 09:44:12 51°35.276 2°29.546 23.3798 0.007265 0.042856 19.983742
2006-06-28 09:45:12 51°35.435 2°29.689 23.3703 0.007265 0.042864 20.017452
2006-06-28 09:46:12 51°35.589 2°29.839 23.3875 0.007265 0.042872 19.848905
2006-06-28 09:47:10 51°35.739 2°29.985 23.3781 0.007265 0.04288 19.882614
2006-06-28 09:48:12 51°35.9 2°30.136 23.3894 0.007265 0.042888 19.815195
2006-06-28 09:49:11 51°36.051 2°30.285 23.4146 0.007265 0.042895 19.781486
2006-06-28 09:50:12 51°36.208 2°30.435 23.4163 0.007265 0.042903 19.781486
2006-06-28 09:51:12 51°36.36 2°30.579 23.4148 0.007265 0.04291 19.714067
2006-06-28 09:52:12 51°36.512 2°30.729 23.4309 0.007265 0.042917 19.781486
2006-06-28 09:53:12 51°36.665 2°30.877 23.4417 0.007265 0.042923 19.680358
2006-06-28 09:54:12 51°36.818 2°31.026 23.4595 0.007265 0.042931 19.680358
2006-06-28 09:55:10 51°36.964 2°31.169 23.4701 0.007265 0.042938 19.646648
2006-06-28 09:56:11 51°37.118 2°31.32 23.463 0.007265 0.042946 19.612939
2006-06-28 09:57:10 51°37.268 2°31.472 23.4748 0.007265 0.042953 19.54552
2006-06-28 09:58:11 51°37.423 2°31.63 23.4806 0.007265 0.042959 19.54552
2006-06-28 09:59:10 51°37.576 2°31.776 23.4615 0.007265 0.042966 19.54552
2006-06-28 10:00:10 51°37.728 2°31.926 23.4762 0.007265 0.042974 19.511811
2006-06-28 10:01:10 51°37.882 2°32.079 23.4703 0.007265 0.042981 19.444392
2006-06-28 10:02:12 51°38.042 2°32.238 23.5143 0.007161 0.042451 19.478101
2006-06-28 10:03:10 51°38.191 2°32.388 23.4958 0.007265 0.042996 19.410683
2006-06-28 10:04:10 51°38.348 2°32.544 23.5095 0.007161 0.042466 19.444392
2006-06-28 10:05:10 51°38.504 2°32.7 23.5308 0.007161 0.042472 19.343264
2006-06-28 10:06:10 51°38.661 2°32.858 23.5238 0.007161 0.042478 19.275845
2006-06-28 10:07:12 51°38.826 2°33.018 23.5111 0.007161 0.042485 19.309554
2006-06-28 10:08:10 51°38.978 2°33.17 23.5289 0.007161 0.042491 19.275845
2006-06-28 10:09:11 51°39.138 2°33.326 23.5507 0.007161 0.042498 19.208426
2006-06-28 10:10:12 51°39.269 2°33.491 23.5445 0.007161 0.042503 19.141007
2006-06-28 10:11:10 51°39.233 2°33.586 23.5676 0.007161 0.042502 19.208426
2006-06-28 10:12:10 51°39.156 2°33.564 23.5812 0.007161 0.042512 19.141007
2006-06-28 10:13:11 51°39.107 2°33.464 23.6031 0.007161 0.042509 19.141007
2006-06-28 10:14:11 51°39.076 2°33.355 23.6071 0.007161 0.042507 19.107298
2006-06-28 10:15:11 51°39.053 2°33.297 23.623 0.007161 0.042503 19.00617
2006-06-28 10:16:11 51°39.027 2°33.309 23.6051 0.007161 0.042494 19.00617
2006-06-28 10:17:12 51°39.012 2°33.257 23.6273 0.007161 0.042486 19.00617
2006-06-28 10:18:12 51°39.001 2°33.201 23.624 0.007161 0.042482 18.97246
2006-06-28 10:19:10 51°39.031 2°33.129 23.5905 0.007161 0.042473 18.938751
2006-06-28 10:20:12 51°39.149 2°33.152 23.6122 0.007161 0.042466 18.905042
2006-06-28 10:21:11 51°39.274 2°33.285 23.6152 0.007161 0.042459 18.871332
2006-06-28 10:22:12 51°39.431 2°33.452 23.6182 0.007161 0.042453 18.803913
2006-06-28 10:23:11 51°39.585 2°33.621 23.6197 0.007161 0.042449 18.837623
2006-06-28 10:24:12 51°39.749 2°33.787 23.6261 0.007161 0.042446 18.803913
2006-06-28 10:25:11 51°39.909 2°33.947 23.6169 0.007161 0.042445 18.803913
2006-06-28 10:26:12 51°40.074 2°34.112 23.6245 0.007161 0.042443 18.770204
2006-06-28 10:27:12 51°40.237 2°34.273 23.6387 0.007161 0.042441 18.736494
2006-06-28 10:28:12 51°40.398 2°34.434 23.6349 0.007161 0.04244 18.635366
2006-06-28 10:29:11 51°40.556 2°34.591 23.6458 0.007161 0.04244 18.601657
2006-06-28 10:30:12 51°40.721 2°34.754 23.636 0.007161 0.04244 18.669076
2006-06-28 10:31:12 51°40.882 2°34.916 23.6399 0.007161 0.04244 18.669076
2006-06-28 10:32:12 51°41.045 2°35.076 23.6416 0.007161 0.042439 18.635366
2006-06-28 10:33:10 51°41.189 2°35.252 23.6426 0.007161 0.04244 18.635366
2006-06-28 10:34:12 51°41.309 2°35.5 23.672 0.007161 0.04244 18.567947
2006-06-28 10:35:11 51°41.354 2°35.795 23.6674 0.007161 0.042439 18.466819
2006-06-28 10:36:12 51°41.274 2°36.1 23.6704 0.007161 0.042441 18.43311
2006-06-28 10:37:11 51°41.15 2°36.372 23.6827 0.007161 0.042441 18.466819
2006-06-28 10:38:10 51°41.037 2°36.653 23.685 0.007161 0.042441 18.43311
2006-06-28 10:39:12 51°40.926 2°36.962 23.6905 0.007161 0.042441 18.43311
2006-06-28 10:40:11 51°40.818 2°37.255 23.7053 0.007161 0.04244 18.331982
2006-06-28 10:41:11 51°40.711 2°37.556 23.6976 0.007161 0.042439 18.331982
2006-06-28 10:42:10 51°40.606 2°37.853 23.7029 0.007161 0.042438 18.331982
2006-06-28 10:43:11 51°40.499 2°38.16 23.7066 0.007161 0.042437 18.298272
2006-06-28 10:44:10 51°40.399 2°38.459 23.726 0.007161 0.042436 18.331982
2006-06-28 10:45:10 51°40.294 2°38.761 23.7233 0.007161 0.042435 18.264563
2006-06-28 10:46:10 51°40.191 2°39.064 23.7327 0.007161 0.042433 18.264563
2006-06-28 10:47:10 51°40.089 2°39.366 23.7339 0.007161 0.042432 18.298272
2006-06-28 10:48:12 51°39.981 2°39.677 23.7081 0.007161 0.042431 18.230853
2006-06-28 10:49:10 51°39.882 2°39.967 23.7297 0.007161 0.04243 18.230853
2006-06-28 10:50:10 51°39.781 2°40.267 23.7319 0.007161 0.042429 18.028597
2006-06-28 10:51:12 51°39.673 2°40.577 23.7556 0.007161 0.042428 18.028597
2006-06-28 10:52:12 51°39.573 2°40.878 23.7565 0.007161 0.042426 18.062306
2006-06-28 10:53:12 51°39.46 2°41.17 23.7534 0.007161 0.042424 18.062306
2006-06-28 10:54:11 51°39.296 2°41.391 23.7597 0.007161 0.042423 18.062306
2006-06-28 10:55:11 51°39.104 2°41.578 23.757 0.007161 0.042421 17.994888
2006-06-28 10:56:11 51°38.902 2°41.749 23.7565 0.007161 0.04242 17.994888
2006-06-28 10:57:11 51°38.69 2°41.896 23.7299 0.007161 0.042417 17.927469
2006-06-28 10:58:12 51°38.453 2°41.911 23.7773 0.007161 0.042414 17.961178
2006-06-28 10:59:11 51°38.219 2°41.827 23.7615 0.007161 0.042412 17.927469
2006-06-28 11:00:11 51°37.988 2°41.694 23.7762 0.007161 0.042408 17.927469
2006-06-28 11:01:11 51°37.763 2°41.533 23.791 0.007161 0.042405 17.86005
2006-06-28 11:02:12 51°37.56 2°41.294 23.7775 0.007161 0.042402 17.826341
2006-06-28 11:03:12 51°37.421 2°40.976 23.8018 0.007161 0.042397 17.893759
2006-06-28 11:04:11 51°37.354 2°40.611 23.7698 0.007161 0.042396 17.826341
2006-06-28 11:05:12 51°37.336 2°40.226 23.8022 0.007161 0.042393 17.792631
2006-06-28 11:06:11 51°37.322 2°39.856 23.8048 0.007161 0.04239 17.758922
2006-06-28 11:07:11 51°37.306 2°39.48 23.8107 0.007161 0.042386 17.758922
2006-06-28 11:08:11 51°37.288 2°39.106 23.8021 0.007161 0.042382 17.725212
2006-06-28 11:09:11 51°37.273 2°38.732 23.7954 0.007161 0.042379 17.691503
2006-06-28 11:10:12 51°37.262 2°38.353 23.8284 0.007161 0.042376 17.657794
2006-06-28 11:11:11 51°37.251 2°37.987 23.7968 0.007161 0.042374 17.691503
2006-06-28 11:12:12 51°37.24 2°37.609 23.8228 0.007161 0.042372 17.657794
2006-06-28 11:13:12 51°37.235 2°37.238 23.8372 0.007161 0.04237 17.624084
2006-06-28 11:14:12 51°37.238 2°36.867 23.8171 0.007161 0.042368 17.624084
2006-06-28 11:15:12 51°37.248 2°36.498 23.8462 0.007161 0.042366 17.556665
2006-06-28 11:16:12 51°37.257 2°36.127 23.8214 0.007161 0.042365 17.556665
2006-06-28 11:17:11 51°37.242 2°35.761 23.8211 0.007161 0.042363 17.556665
2006-06-28 11:18:11 51°37.222 2°35.386 23.8377 0.007161 0.042362 17.489247
2006-06-28 11:19:12 51°37.205 2°35 23.8553 0.007161 0.042361 17.522956
2006-06-28 11:20:12 51°37.184 2°34.623 23.838 0.007161 0.04236 17.489247
2006-06-28 11:21:11 51°37.092 2°34.274 23.8661 0.007161 0.042358 17.489247
2006-06-28 11:22:12 51°36.927 2°33.977 23.8575 0.007161 0.042357 17.455537
2006-06-28 11:23:11 51°36.734 2°33.758 23.8393 0.007161 0.042355 17.354409
2006-06-28 11:24:11 51°36.509 2°33.634 23.8523 0.007161 0.042352 17.455537
2006-06-28 11:25:12 51°36.281 2°33.5 23.8326 0.007161 0.042349 17.421828
2006-06-28 11:26:11 51°36.06 2°33.365 23.8457 0.007161 0.042346 17.354409
2006-06-28 11:27:11 51°35.836 2°33.23 23.8755 0.007161 0.042344 17.388118
2006-06-28 11:28:12 51°35.608 2°33.101 23.8665 0.007161 0.04234 17.388118
2006-06-28 11:29:11 51°35.386 2°32.985 23.8457 0.007161 0.042338 17.354409
2006-06-28 11:30:12 51°35.152 2°32.879 23.8836 0.007161 0.042335 17.354409
2006-06-28 11:31:12 51°34.926 2°32.765 23.8763 0.007161 0.042332 17.3207
2006-06-28 11:32:11 51°34.701 2°32.662 23.8927 0.007161 0.042329 17.28699
2006-06-28 11:33:12 51°34.469 2°32.553 23.9014 0.007161 0.042326 17.28699
2006-06-28 11:34:11 51°34.248 2°32.443 23.9164 0.007161 0.042323 17.219571
2006-06-28 11:35:11 51°34.02 2°32.333 23.9284 0.007161 0.04232 17.219571
2006-06-28 11:36:12 51°33.784 2°32.31 23.9003 0.007161 0.042316 17.185862
2006-06-28 11:37:11 51°33.555 2°32.287 23.9177 0.007161 0.042313 17.185862
2006-06-28 11:38:12 51°33.318 2°32.259 23.923 0.007161 0.042309 17.118443
2006-06-28 11:39:12 51°33.084 2°32.235 23.9239 0.007161 0.042305 17.219571
2006-06-28 11:40:12 51°32.847 2°32.21 23.9111 0.007161 0.042302 17.118443
2006-06-28 11:41:12 51°32.609 2°32.181 23.941 0.007161 0.042298 17.118443
2006-06-28 11:42:12 51°32.372 2°32.15 23.9461 0.007161 0.042295 17.084734
2006-06-28 11:43:12 51°32.135 2°32.124 23.9477 0.007161 0.042292 17.118443
2006-06-28 11:44:12 51°31.9 2°32.102 23.9578 0.007161 0.042288 17.051024
2006-06-28 11:45:11 51°31.671 2°32.082 23.9698 0.007161 0.042284 16.983606
2006-06-28 11:46:12 51°31.434 2°32.084 23.9453 0.007161 0.042282 16.983606
2006-06-28 11:47:11 51°31.212 2°32.126 24.0077 0.007161 0.042277 16.916187
2006-06-28 11:48:11 51°31.048 2°32.357 23.9586 0.007161 0.042275 16.949896
2006-06-28 11:49:12 51°30.873 2°32.59 23.9588 0.007161 0.042273 16.916187
2006-06-28 11:50:12 51°30.699 2°32.815 23.9713 0.007161 0.042269 16.916187
2006-06-28 11:51:11 51°30.529 2°33.041 23.946 0.007161 0.042266 16.949896
2006-06-28 11:52:12 51°30.353 2°33.269 23.9376 0.007161 0.042263 16.848768
2006-06-28 11:53:10 51°30.185 2°33.486 23.9612 0.007161 0.042261 16.882477
2006-06-28 11:54:12 51°30.029 2°33.748 23.9596 0.007161 0.042258 16.848768
2006-06-28 11:55:10 51°29.92 2°34.035 23.9791 0.007161 0.042255 16.848768
2006-06-28 11:56:12 51°29.874 2°34.376 23.9671 0.007161 0.042254 16.781349
2006-06-28 11:57:10 51°29.827 2°34.692 23.9374 0.007161 0.042249 16.848768
2006-06-28 11:58:11 51°29.686 2°34.967 23.9844 0.007161 0.042247 16.74764
2006-06-28 11:59:11 51°29.537 2°35.231 23.996 0.007161 0.042243 16.781349
2006-06-28 12:00:11 51°29.388 2°35.499 23.9853 0.007161 0.04224 16.74764
2006-06-28 12:01:12 51°29.236 2°35.772 23.9818 0.007161 0.042237 16.815059
2006-06-28 12:02:12 51°29.089 2°36.044 24.0025 0.007161 0.042234 16.71393
2006-06-28 12:03:11 51°28.941 2°36.307 23.9878 0.007161 0.042231 16.74764
2006-06-28 12:04:12 51°28.788 2°36.579 23.9978 0.007161 0.042229 16.71393
2006-06-28 12:05:12 51°28.63 2°36.836 24.0075 0.007161 0.042226 16.680221
2006-06-28 12:06:11 51°28.469 2°37.08 24.0269 0.007161 0.042225 16.646512
2006-06-28 12:07:12 51°28.297 2°37.324 24.0128 0.007161 0.042222 16.646512
2006-06-28 12:08:12 51°28.12 2°37.551 23.9987 0.007161 0.042221 16.579093
2006-06-28 12:09:12 51°27.94 2°37.773 24.038 0.007161 0.042219 16.612802
2006-06-28 12:10:12 51°27.758 2°37.996 24.0389 0.007161 0.042217 16.646512
2006-06-28 12:11:12 51°27.561 2°38.183 24.0484 0.007161 0.042216 16.579093
2006-06-28 12:12:11 51°27.365 2°38.36 24.0468 0.007161 0.042214 16.579093
2006-06-28 12:13:12 51°27.15 2°38.515 24.0547 0.007161 0.042213 16.612802
2006-06-28 12:14:12 51°26.94 2°38.664 24.0466 0.007161 0.042211 16.545383
2006-06-28 12:15:12 51°26.73 2°38.81 24.0603 0.007161 0.042209 16.511674
2006-06-28 12:16:12 51°26.519 2°38.95 24.085 0.007161 0.042207 16.511674
2006-06-28 12:17:11 51°26.311 2°39.083 24.0694 0.007161 0.042205 16.545383
2006-06-28 12:18:11 51°26.104 2°39.199 24.0437 0.007161 0.042203 16.511674
2006-06-28 12:19:12 51°25.896 2°39.32 24.062 0.007161 0.042201 16.477965
2006-06-28 12:20:11 51°25.695 2°39.44 24.0872 0.007161 0.042199 16.410546
2006-06-28 12:21:10 51°25.49 2°39.548 24.1005 0.007161 0.042196 16.444255
2006-06-28 12:22:12 51°25.274 2°39.663 24.0967 0.007161 0.042194 16.376836
2006-06-28 12:23:12 51°25.063 2°39.777 24.1003 0.007161 0.042192 16.376836
2006-06-28 12:24:11 51°24.857 2°39.888 24.0956 0.007161 0.04219 16.376836
2006-06-28 12:25:11 51°24.639 2°39.966 24.1164 0.007161 0.042187 16.343127
2006-06-28 12:26:11 51°24.421 2°40.041 24.1285 0.007161 0.042185 16.343127
2006-06-28 12:27:11 51°24.203 2°40.124 24.1082 0.007161 0.042182 16.410546
2006-06-28 12:28:11 51°23.984 2°40.208 24.1106 0.007161 0.04218 16.343127
2006-06-28 12:29:12 51°23.764 2°40.299 24.1212 0.007161 0.042177 16.343127
2006-06-28 12:30:12 51°23.544 2°40.387 24.1523 0.007161 0.042175 16.275708
2006-06-28 12:31:12 51°23.326 2°40.476 24.1408 0.007161 0.042172 16.343127
2006-06-28 12:32:12 51°23.113 2°40.549 24.1516 0.007161 0.04217 16.241999
2006-06-28 12:33:11 51°22.905 2°40.621 24.1597 0.007161 0.042167 16.241999
2006-06-28 12:34:12 51°22.69 2°40.701 24.1602 0.007161 0.042164 16.241999
2006-06-28 12:35:12 51°22.478 2°40.785 24.1889 0.007161 0.042162 16.208289
2006-06-28 12:36:12 51°22.272 2°40.902 24.1717 0.007161 0.042159 16.208289
2006-06-28 12:37:10 51°22.075 2°41.025 24.1322 0.007161 0.042157 16.140871
2006-06-28 12:38:12 51°21.863 2°41.162 24.188 0.007161 0.042154 16.140871
2006-06-28 12:39:12 51°21.657 2°41.29 24.193 0.007161 0.042151 16.140871
2006-06-28 12:40:10 51°21.459 2°41.421 24.213 0.007161 0.042148 16.073452
2006-06-28 12:41:11 51°21.251 2°41.557 24.209 0.007161 0.042146 16.140871
2006-06-28 12:42:12 51°21.052 2°41.732 24.2151 0.007161 0.042144 16.140871
2006-06-28 12:43:11 51°20.888 2°41.961 24.1563 0.007161 0.042142 16.073452
2006-06-28 12:44:12 51°20.727 2°42.228 24.228 0.007265 0.042669 16.073452
2006-06-28 12:45:11 51°20.596 2°42.518 24.204 0.007161 0.042138 16.073452
2006-06-28 12:46:11 51°20.47 2°42.813 24.2452 0.007161 0.042137 16.039742
2006-06-28 12:47:11 51°20.356 2°43.121 24.2312 0.007161 0.042135 16.006033
2006-06-28 12:48:12 51°20.244 2°43.434 24.2163 0.007161 0.042134 15.871195
2006-06-28 12:49:12 51°20.131 2°43.731 24.2311 0.007265 0.042663 15.972324
2006-06-28 12:50:12 51°20.012 2°44.019 24.2186 0.007265 0.042662 16.006033
2006-06-28 12:51:12 51°19.898 2°44.307 24.2098 0.007161 0.042132 15.837486
2006-06-28 12:52:10 51°19.786 2°44.585 24.2154 0.007161 0.042132 15.938614
2006-06-28 12:53:12 51°19.667 2°44.889 24.2509 0.007161 0.042131 15.871195
2006-06-28 12:54:11 51°19.552 2°45.182 24.2639 0.007161 0.042131 15.938614
2006-06-28 12:55:12 51°19.429 2°45.494 24.2568 0.007161 0.04213 15.837486
2006-06-28 12:56:10 51°19.312 2°45.788 24.2766 0.007265 0.042659 15.736358
2006-06-28 12:57:11 51°19.195 2°46.092 24.237 0.007161 0.042129 15.871195
2006-06-28 12:58:12 51°19.079 2°46.395 24.2879 0.007161 0.042129 15.837486
2006-06-28 12:59:12 51°18.966 2°46.695 24.2903 0.007161 0.042129 15.837486
2006-06-28 13:00:11 51°18.856 2°46.989 24.2989 0.007161 0.042128 15.803777
2006-06-28 13:01:12 51°18.736 2°47.289 24.2676 0.007161 0.042128 15.770067
2006-06-28 13:02:12 51°18.616 2°47.583 24.2888 0.007161 0.042128 15.803777
2006-06-28 13:03:12 51°18.499 2°47.888 24.2886 0.007161 0.042128 15.736358
2006-06-28 13:04:12 51°18.388 2°48.198 24.3432 0.007161 0.042127 15.770067
2006-06-28 13:05:11 51°18.283 2°48.514 24.3145 0.007161 0.042126 15.702648
2006-06-28 13:06:12 51°18.179 2°48.847 24.3239 0.007161 0.042118 15.702648
2006-06-28 13:07:12 51°18.081 2°49.178 24.3356 0.007161 0.042125 15.668939
2006-06-28 13:08:12 51°17.986 2°49.509 24.3589 0.007161 0.042125 15.60152
2006-06-28 13:09:11 51°17.89 2°49.835 24.3314 0.007161 0.042125 15.702648
2006-06-28 13:10:12 51°17.79 2°50.169 24.36 0.007161 0.042125 15.60152
2006-06-28 13:11:10 51°17.695 2°50.481 24.3342 0.007161 0.042125 15.60152
2006-06-28 13:12:12 51°17.589 2°50.812 24.3778 0.007161 0.042125 15.534101
2006-06-28 13:13:12 51°17.473 2°51.121 24.3574 0.007161 0.042125 15.567811
2006-06-28 13:14:11 51°17.345 2°51.406 24.3625 0.007161 0.042125 15.567811
2006-06-28 13:15:11 51°17.204 2°51.681 24.3844 0.007161 0.042125 15.567811
2006-06-28 13:16:11 51°17.062 2°51.952 24.3736 0.007161 0.042124 15.534101
2006-06-28 13:17:12 51°16.892 2°52.188 24.413 0.007161 0.042123 15.500392
2006-06-28 13:18:10 51°16.718 2°52.389 24.3964 0.007161 0.042122 15.534101
2006-06-28 13:19:11 51°16.534 2°52.599 24.4428 0.007265 0.04265 15.500392
2006-06-28 13:20:12 51°16.349 2°52.807 24.4444 0.007161 0.04212 15.466683
2006-06-28 13:21:11 51°16.166 2°52.996 24.4479 0.007161 0.042118 15.466683
2006-06-28 13:22:11 51°15.979 2°53.178 24.4628 0.007161 0.042117 15.432973
2006-06-28 13:23:11 51°15.794 2°53.361 24.4632 0.007265 0.042643 15.432973
2006-06-28 13:24:11 51°15.608 2°53.541 24.4749 0.007161 0.042113 15.432973
2006-06-28 13:25:11 51°15.422 2°53.721 24.4954 0.007161 0.04211 15.399264
2006-06-28 13:26:11 51°15.242 2°53.907 24.492 0.007161 0.042108 15.432973
2006-06-28 13:27:11 51°15.073 2°54.083 24.4917 0.007161 0.042106 15.365554
2006-06-28 13:28:12 51°14.902 2°54.27 24.5048 0.007161 0.042104 15.365554
2006-06-28 13:29:11 51°14.739 2°54.452 24.5215 0.007161 0.042101 15.365554
2006-06-28 13:30:12 51°14.585 2°54.67 24.4928 0.007161 0.042098 15.331845
2006-06-28 13:31:12 51°14.442 2°54.909 24.5445 0.007161 0.042097 15.331845
2006-06-28 13:32:12 51°14.314 2°55.168 24.5405 0.007161 0.042094 15.298136
2006-06-28 13:33:12 51°14.193 2°55.356 24.5614 0.007161 0.042093 15.331845
2006-06-28 13:34:12 51°14.078 2°55.445 24.5882 0.007161 0.04209 15.298136
2006-06-28 13:35:11 51°13.977 2°55.517 24.6109 0.007161 0.042087 15.298136
2006-06-28 13:36:12 51°13.863 2°55.604 24.6007 0.007161 0.042084 15.230717
2006-06-28 13:37:12 51°13.764 2°55.702 24.6425 0.007161 0.042082 15.230717
2006-06-28 13:38:12 51°13.71 2°55.793 24.6625 0.007161 0.042078 15.197007
2006-06-28 13:39:12 51°13.68 2°55.866 24.6709 0.007161 0.042074 15.197007
2006-06-28 13:40:12 51°13.655 2°55.925 24.6864 0.007161 0.042069 15.163298
2006-06-28 13:41:12 51°13.634 2°55.979 24.6984 0.007161 0.042065 15.197007
2006-06-28 13:42:12 51°13.618 2°56.04 24.7106 0.007265 0.042588 15.163298
2006-06-28 13:43:12 51°13.608 2°56.08 24.7636 0.007161 0.042055 15.163298
2006-06-28 13:44:12 51°13.6 2°56.095 24.756 0.007161 0.042053 15.129589